Location: ?astrovice
(49.6513°N, 14.9287°E)
Time: 16:45:10
(UTC+00:00)

Cosmos 1980 Rocket - Pass Details

Date: 09 April 2020
Orbit: 828 x 851 km, 71.0° (Epoch: 01 June)

Event Time Altitude Azimuth Distance (km) Brightness Sun altitude
Rises 18:08:47 0° 331° (NNW) 3,385 6.1 -4.6°
Reaches altitude 10° 18:13:14 10° 4° (N) 2,452 4.8 -5.2°
Maximum altitude 18:15:06 12° 24° (NNE) 2,343 4.5 -5.5°
Drops below altitude 10° 18:16:58 10° 44° (NE) 2,454 4.4 -5.8°
Enters shadow 18:21:01 - 74° (ENE) 3,284 4.8 -6.4°
